CZ-3C DEB, 40174

Orbit data source: Space-Track

CZ-3C DEB, 40174 is space debris in HEO originally from a launch on Sun, 31 Oct 2010 UTC launched from the Xichang Space Center, China (XSC). Debris objects in space refer to the collection of defunct objects orbiting the Earth. Examples of debris include non-operational satellites, rocket bodies, and fragments generated from explosions, collisions, or faulty payload assembly.

Loading next visibility...
Identifier
40174, 2010-057AC
Orbit
HEO
Country
Flag of CNCN / PRC
Related business
Manufacturer
CALT
Mission
Spacecraft
Bus & Motor
Unknown
Mass
Unknown
Launch date (UTC)
2010-10-31 (15 years ago)
Launch vehicle
Unknown
Launch site
Xichang Space Center, China (XSC)
Object type
Payload
Rocket body
Debris
Shape & HBR
Unknown shape, 0.2 m
Radar Cross Section
Medium (>0.1 m² and <1 m²)

Expand to show TLE details & history
Last TLE update: 1 week ago

TLE from 1 week ago
0 CZ-3C DEB
1 40174U 10057AC  25340.08210360  .00000477  00000-0  69436-2 0  9991
2 40174  20.3750  15.9180 7085407 320.5748   8.4705  2.34922638 95961
Epoch: 2025-12-06T01:58Z
TLE epoch observation values (Epoch: 2025-12-06T01:58:13.751Z)
Latitude
7.0127°
Longitude
-69.52961°
Altitude
2,437.161 km
Speed
8.588 km/s
True Right ascension
02h 20m 34s
True Declination
6° 58' 45"
Sunlit
Object was in full shadow at epoch
Visualization orbit readout
Latitude
Unknown
Longitude
Unknown
Altitude
Unknown
Speed
Unknown
Apparent Right ascension
Unknown
Apparent Declination
Unknown
Sunlit
N/A
Visualization observer readout
Local Sidereal Time
19:05:02
Azimuth
Unknown
Elevation
Unknown
Doppler factor
Unknown
Orbital elements
Apogee altitude
34,468.422 km
Perigee altitude
589.862 km
Semi-major axis
23,907.279 km
Eccentricity
0.70854
Inclination
20.375°
RAAN
15.918°
Arg. of periapsis
320.5748°
True anomaly
59.81954°
Mean anomaly
8.4705°
Eccentric anomaly
26.73059°
Mean motion
0.58715 °/min
Orbital period
613.13 mins
BSTAR
0.0069436
Loading maneuver chart data...
Computing Atmospheric mass density...
Loading historical data...
Loading historical data...
Loading historical data...
Loading historical data...
Loading historical data...
Loading historical data...
Loading historical data...

Documentation

Showing up to 5 results
|